Weather History for Prestonsburg, KY

Change the Weather History Date:

Sunday, February 10, 2013

  Actual Average (KJKL) Record (KJKL)
Temperature  
Mean Temperature 46 °F 38 °F  
Max Temperature 61 °F 46 °F 67 °F (1993)
Min Temperature 30 °F 29 °F 11 °F (1982)
Degree Days  
Heating Degree Days 20 27  
Month to date heating degree days 283  
Since 1 July heating degree days 2849  
Cooling Degree Days 0 0  
Month to date cooling degree days 0  
Year to date cooling degree days 0  
Moisture  
Dew Point 26 °F    
Average Humidity 55    
Maximum Humidity 83    
Minimum Humidity 17    
Precipitation  
Precipitation 0.00 in 0.13 in 0.80 in (1994)
Month to date precipitation 1.33  
Year to date precipitation 4.94  
Snow  
Snow 0.00 in 0.20 in - ()
Month to date snowfall 2.8  
Since 1 July snowfall 15.4  
Snow Depth -    
Sea Level Pressure  
Sea Level Pressure 30.10 in    
Wind  
Wind Speed 5 mph (SSE)    
Max Wind Speed 17 mph    
Max Gust Speed 34 mph    
Visibility 10 miles    
Events Rain    
T = Trace of Precipitation, MM = Missing Value Source: NWS Daily Summary

Daily Weather History Graph

Daily Weather History Graph

Search for Another Location

Airport:

Trip Planner

Search our weather history database for the weather conditions in past years. The results will help you decide how hot, cold, wet, or windy it might be!

Date:

Astronomy

Feb. 10, 2013 Rise Set
Actual Time 7:25 AM EST 6:04 PM EST
Civil Twilight 6:58 AM EST 6:31 PM EST
Nautical Twilight 6:27 AM EST 7:02 PM EST
Astronomical Twilight 5:57 AM EST 7:33 PM EST
Moon 7:15 AM EST (2/10) 6:52 PM EST (2/10)
Length of Visible Light 11h 33m
Length of Day
10h 38m
Waxing Crescent, 0% of the Moon is Illuminated
Feb 10
Waxing Crescent
Feb 17
First Quarter
Feb 25
Full
Mar 4
Last Quarter
Mar 11
New

Hourly Weather History & Observations

Time (EST) Temp. Windchill Dew Point Humidity Pressure Visibility Wind Dir Wind Speed Gust Speed Precip Events Conditions
12:15 AM 32.4 °F 27.9 °F 18.7 °F 57% 30.22 in 10.0 mi East 4.6 mph - N/A   Clear
12:35 AM 32.9 °F 27.5 °F 18.5 °F 55% 30.21 in 10.0 mi East 5.8 mph - N/A   Clear
12:55 AM 33.4 °F 30.4 °F 18.3 °F 54% 30.21 in 10.0 mi East 3.5 mph - N/A   Clear
1:15 AM 31.1 °F - 19.2 °F 61% 30.20 in 10.0 mi Calm Calm - N/A   Clear
1:35 AM 32.0 °F - 19.0 °F 59% 30.20 in 10.0 mi Calm Calm - N/A   Clear
1:55 AM 32.0 °F - 19.4 °F 60% 30.20 in 10.0 mi Calm Calm - N/A   Clear
2:15 AM 32.0 °F - 19.2 °F 59% 30.20 in 10.0 mi Calm Calm - N/A   Clear
2:35 AM 32.4 °F - 19.4 °F 59% 30.20 in 10.0 mi Calm Calm - N/A   Clear
2:55 AM 31.5 °F - 20.7 °F 64% 30.20 in 10.0 mi Calm Calm - N/A   Clear
3:15 AM 30.6 °F - 23.2 °F 74% 30.19 in 10.0 mi Calm Calm - N/A   Clear
3:35 AM 30.2 °F - 19.9 °F 66% 30.19 in 10.0 mi Calm Calm - N/A   Clear
3:55 AM 30.6 °F - 19.4 °F 63% 30.19 in 10.0 mi Calm Calm - N/A   Clear
4:15 AM 31.6 °F - 19.4 °F 61% 30.19 in 10.0 mi Calm Calm - N/A   Clear
4:35 AM 31.6 °F - 19.4 °F 61% 30.19 in 10.0 mi Calm Calm - N/A   Clear
4:55 AM 32.9 °F - 19.6 °F 58% 30.19 in 10.0 mi Calm Calm - N/A   Clear
5:15 AM 33.1 °F - 18.9 °F 56% 30.20 in 10.0 mi Calm Calm - N/A   Clear
5:35 AM 32.7 °F - 22.6 °F 66% 30.20 in 10.0 mi Calm Calm - N/A   Scattered Clouds
5:55 AM 31.6 °F 26.0 °F 24.6 °F 75% 30.19 in 10.0 mi East 5.8 mph - N/A   Scattered Clouds
6:15 AM 32.0 °F - 24.4 °F 74% 30.21 in 10.0 mi Calm Calm - N/A   Scattered Clouds
6:35 AM 32.7 °F - 23.5 °F 69% 30.21 in 10.0 mi Calm Calm - N/A   Scattered Clouds
7:15 AM 33.3 °F - 23.5 °F 68% 30.23 in 10.0 mi Calm Calm - N/A   Mostly Cloudy
7:35 AM 32.9 °F 28.5 °F 25.9 °F 75% 30.20 in 10.0 mi East 4.6 mph - N/A   Mostly Cloudy
7:55 AM 34.2 °F 30.0 °F 24.4 °F 68% 30.19 in 10.0 mi SE 4.6 mph - N/A   Scattered Clouds
8:15 AM 34.7 °F - 24.6 °F 67% 30.20 in 10.0 mi Calm Calm - N/A   Clear
8:35 AM 35.4 °F - 24.6 °F 65% 30.22 in 10.0 mi Calm Calm - N/A   Clear
8:55 AM 36.5 °F - 25.3 °F 64% 30.21 in 10.0 mi Calm Calm - N/A   Mostly Cloudy
9:15 AM 38.7 °F 34.3 °F 26.4 °F 61% 30.18 in 10.0 mi ENE 5.8 mph - N/A   Mostly Cloudy
9:35 AM 39.6 °F 37.4 °F 26.8 °F 60% 30.19 in 10.0 mi SSW 3.5 mph - N/A   Mostly Cloudy
9:55 AM 43.7 °F 40.3 °F 25.3 °F 48% 30.19 in 10.0 mi SE 5.8 mph - N/A   Clear
10:15 AM 45.0 °F 42.6 °F 26.1 °F 48% 30.18 in 10.0 mi ESE 4.6 mph - N/A   Clear
10:35 AM 46.2 °F 43.3 °F 24.8 °F 43% 30.19 in 10.0 mi South 5.8 mph - N/A   Clear
10:55 AM 48.4 °F - 26.2 °F 42% 30.16 in 10.0 mi ESE 6.9 mph - N/A   Scattered Clouds
11:15 AM 51.1 °F - 23.7 °F 34% 30.17 in 10.0 mi South 5.8 mph - N/A   Scattered Clouds
11:35 AM 52.7 °F - 22.1 °F 30% 30.16 in 10.0 mi SSE 8.1 mph - N/A   Clear
11:55 AM 54.5 °F - 23.0 °F 29% 30.14 in 10.0 mi SE 10.4 mph - N/A   Scattered Clouds
12:15 PM 55.0 °F - 21.9 °F 28% 30.13 in 10.0 mi SSE 6.9 mph - N/A   Mostly Cloudy
12:35 PM 55.6 °F - 22.6 °F 28% 30.10 in 10.0 mi SSE 8.1 mph - N/A   Overcast
12:55 PM 56.3 °F - 22.1 °F 27% 30.10 in 10.0 mi South 6.9 mph 16.1 mph N/A   Mostly Cloudy
1:15 PM 56.3 °F - 21.9 °F 26% 30.08 in 10.0 mi SSE 5.8 mph - N/A   Overcast
1:35 PM 57.0 °F - 21.0 °F 25% 30.06 in 10.0 mi SSE 8.1 mph - N/A   Mostly Cloudy
1:55 PM 58.1 °F - 19.9 °F 23% 30.04 in 10.0 mi SSE 11.5 mph - N/A   Scattered Clouds
2:35 PM 59.2 °F - 19.4 °F 21% 30.03 in 10.0 mi South 9.2 mph - N/A   Overcast
2:55 PM 59.9 °F - 18.7 °F 20% 30.02 in 10.0 mi South 9.2 mph - N/A   Overcast
3:35 PM 61.0 °F - 18.7 °F 19% 30.00 in 10.0 mi South 9.2 mph 18.4 mph N/A   Scattered Clouds
3:55 PM 60.8 °F - 18.0 °F 19% 29.99 in 10.0 mi South 17.3 mph - N/A   Mostly Cloudy
4:15 PM 60.4 °F - 16.2 °F 18% 29.99 in 10.0 mi South 16.1 mph - N/A   Overcast
4:35 PM 60.1 °F - 15.8 °F 18% 30.00 in 10.0 mi South 10.4 mph - N/A   Overcast
4:55 PM 59.9 °F - 14.9 °F 17% 30.02 in 10.0 mi South 10.4 mph - N/A   Overcast
5:15 PM 59.9 °F - 14.9 °F 17% 30.04 in 10.0 mi SSW 11.5 mph 17.3 mph N/A   Overcast
5:35 PM 54.1 °F - 29.7 °F 39% 30.05 in 10.0 mi West 8.1 mph 34.5 mph N/A Rain Light Rain
6:15 PM 49.6 °F - 36.1 °F 60% 30.06 in 5.0 mi South 6.9 mph - N/A Rain Rain
6:35 PM 49.3 °F - 37.0 °F 63% 30.04 in 10.0 mi South 8.1 mph - N/A Rain Rain
6:55 PM 48.0 °F - 38.1 °F 69% 30.03 in 7.0 mi SSE 10.4 mph 18.4 mph N/A Rain Light Rain
7:15 PM 46.2 °F 39.5 °F 39.4 °F 77% 30.03 in 7.0 mi SSE 16.1 mph - N/A Rain Rain
7:35 PM 44.8 °F 37.7 °F 39.7 °F 82% 30.01 in 5.0 mi SSE 16.1 mph 20.7 mph N/A   Overcast
7:55 PM 44.6 °F 38.1 °F 39.7 °F 83% 30.00 in 10.0 mi SSE 13.8 mph - N/A   Overcast
8:15 PM 44.8 °F 38.0 °F 39.9 °F 83% 29.99 in 10.0 mi SSE 15.0 mph 21.9 mph N/A   Overcast
8:35 PM 45.5 °F 40.3 °F 40.1 °F 81% 29.98 in 10.0 mi SSE 10.4 mph 19.6 mph N/A   Overcast
8:55 PM 45.9 °F 40.0 °F 40.1 °F 80% 29.97 in 10.0 mi SSE 12.7 mph 16.1 mph N/A   Overcast
9:15 PM 46.4 °F 42.4 °F 40.1 °F 79% 29.97 in 10.0 mi SSE 8.1 mph - N/A   Overcast
9:35 PM 46.8 °F - 40.1 °F 78% 29.95 in 10.0 mi SSE 13.8 mph 19.6 mph N/A   Mostly Cloudy
9:55 PM 47.5 °F - 40.3 °F 76% 29.95 in 10.0 mi South 13.8 mph 17.3 mph N/A   Mostly Cloudy
10:15 PM 48.2 °F - 40.6 °F 75% 29.94 in 10.0 mi South 13.8 mph - N/A   Overcast
10:35 PM 49.1 °F - 40.6 °F 73% 29.92 in 10.0 mi South 13.8 mph 21.9 mph N/A   Overcast
10:55 PM 49.6 °F - 41.2 °F 73% 29.91 in 10.0 mi South 16.1 mph 24.2 mph N/A   Overcast
11:15 PM 50.4 °F - 41.5 °F 72% 29.90 in 10.0 mi South 17.3 mph 24.2 mph N/A   Mostly Cloudy
11:35 PM 50.9 °F - 41.9 °F 71% 29.91 in 10.0 mi South 15.0 mph 19.6 mph N/A   Mostly Cloudy
11:55 PM 51.3 °F - 42.3 °F 71% 29.91 in 10.0 mi South 12.7 mph 18.4 mph N/A   Overcast